[[{"header":{"parameterUnit":"m.s-1","parameterCategory":1,"la1":30.2991,"la2":30.254,"lo1":-89.0895,"lo2":-89.0444,"dy":0.0017,"dx":0.0017,"nx":28,"ny":28,"refTime":"2023-10-05T09:00:00:Z","depth":0,"parameterNumber":2,"parameterNumberName":"U-component_of_WINDS"},"data":[0,0,0,0,0,0,0,0,0,0,0,0,0,0,0,0,0,0,0,0,0,0,0,0,0,0,0,0,0,0,0,0,0,0,0,0,0,0,0,0,0,0,0,0,0,0,0,0,0,0,0,0,0,0,0,0,0,0,1.3409,1.341,0,1.3499,1.35,1.3501,1.354,1.354,1.3539,1.3539,1.3634,1.3637,1.3639,0,0,0,0,0,0,0,0,0,0,0,0,0,1.3272,1.3274,1.3409,1.341,1.3411,1.3499,1.35,1.3502,1.354,1.354,1.3539,1.3539,1.3633,1.3636,1.364,0,0,0,0,0,0,0,0,0,0,0,0,0,1.3344,1.3275,1.3409,1.3441,1.3444,1.3499,1.35,1.3502,1.354,1.354,1.3539,1.3539,1.3632,1.3636,1.364,1.367,0,0,1.3652,1.3654,0,0,0,0,0,0,0,0,1.334,1.3349,1.3435,1.3439,1.3443,1.3508,1.3487,1.3558,1.354,1.3504,1.3539,1.3539,1.3593,1.36,1.3617,1.3675,1.3679,1.3653,1.3655,1.3657,1.3658,0,0,0,0,0,0,0,1.3335,1.3345,1.3445,1.3436,1.3441,1.3451,1.3461,1.3501,1.3549,1.3507,1.351,1.352,1.3595,1.3613,1.362,1.368,1.3653,1.3656,1.3659,1.366,1.3767,1.3768,0,0,0,0,0,0,1.3324,1.3341,1.3442,1.3447,1.339,1.3454,1.3465,1.3487,1.3548,1.3557,1.352,1.3521,1.3607,1.3615,1.3623,1.3663,1.3657,1.3661,1.3663,1.3767,1.3768,1.3768,0,0,0,0,0,0,1.3321,1.3333,1.3438,1.3395,1.3409,1.3457,1.3481,1.3489,1.3508,1.3558,1.3567,1.353,1.3607,1.3618,1.3658,1.3667,1.3663,1.3666,1.3767,1.3767,1.3768,1.3742,0,0,0,0,0,0,1.3317,1.3331,1.3342,1.3395,1.3411,1.347,1.3482,1.3491,1.3515,1.3517,1.357,1.3579,1.3607,1.3652,1.3662,1.3672,1.3669,1.3766,1.3767,1.3768,1.3742,1.3742,1.3741,0,0,0,0,0,1.3312,1.3332,1.3343,1.3355,1.3426,1.3471,1.348,1.3513,1.3515,1.3527,1.356,1.3577,1.3664,1.3656,1.3668,1.3679,1.3766,1.3767,1.3768,1.3743,1.3742,1.3741,0,0,0,0,0,0,1.328,1.3339,1.3352,1.3389,1.3425,1.3477,1.3493,1.3511,1.3546,1.3547,1.3587,1.3598,1.3636,1.3662,1.3651,1.3712,1.3716,1.372,1.3694,1.3693,1.3693,1.3686,1.3673,0,0,0,0,0,1.3277,1.3308,1.3358,1.3387,1.3404,1.3445,1.3466,1.3488,1.3526,1.3542,1.3577,1.3614,1.365,1.3673,1.3709,1.3746,1.3759,1.376,1.376,1.3759,1.3761,1.3784,1.3785,1.3771,1.3771,1.3771,0,0,1.3272,1.3308,1.3325,1.3381,1.3411,1.3443,1.3458,1.349,1.3515,1.3547,1.3587,1.3614,1.3659,1.3698,1.3717,1.3721,1.3768,1.376,1.3759,1.3762,1.3785,1.3787,1.3788,1.3772,1.3772,1.3772,0,0,1.3278,1.3308,1.3336,1.3365,1.341,1.3438,1.3444,1.3495,1.3514,1.3555,1.358,1.361,1.3671,1.3702,1.3725,1.3744,1.3762,1.3755,1.3752,1.3774,1.3775,1.3776,1.3784,1.3786,1.3757,1.3757,1.3757,0,1.3266,1.3314,1.3347,1.3379,1.3404,1.3434,1.3462,1.349,1.3544,1.3561,1.3564,1.3641,1.3673,1.3721,1.3725,1.3743,1.3753,1.3749,1.3772,1.3773,1.3775,1.3783,1.3785,1.3756,1.3756,1.3756,1.3757,0,1.3297,1.333,1.3347,1.3399,1.3425,1.3455,1.3494,1.3516,1.3536,1.3564,1.3606,1.3645,1.369,1.3703,1.3723,1.3753,1.3754,1.3764,1.3769,1.3775,1.3783,1.3786,1.3755,1.3755,1.3755,1.3756,0,0,1.3286,1.3356,1.3361,1.3385,1.3438,1.3464,1.3496,1.3539,1.3558,1.3595,1.3624,1.3675,1.3684,1.3711,1.3735,1.3754,1.3767,1.3762,1.3763,1.3762,1.3804,1.3797,1.3799,1.3779,1.378,1.378,1.3801,0,1.33,1.3357,1.3388,1.3433,1.3465,1.3494,1.3522,1.3558,1.3585,1.3616,1.3646,1.3682,1.3692,1.3708,1.3728,1.3761,1.3776,1.376,1.3807,1.3808,1.3795,1.3803,1.3795,1.3813,1.3804,1.3805,1.3805,0,1.3323,1.3359,1.3407,1.3456,1.3471,1.3495,1.3538,1.3567,1.3609,1.3627,1.3657,1.3681,1.3716,1.3719,1.3769,1.3757,1.3779,1.3798,1.3799,1.3805,1.3807,1.381,1.3819,1.3822,1.381,1.381,1.3809,0,1.3311,1.3371,1.3408,1.3428,1.3486,1.3503,1.3528,1.3569,1.3593,1.3631,1.3647,1.3688,1.3711,1.3743,1.3777,1.3776,1.3825,1.383,1.3842,1.3841,1.3851,1.385,1.3864,1.3864,1.3864,1.3863,1.3863,0,1.3323,1.3351,1.3403,1.3425,1.3458,1.3495,1.3526,1.3554,1.359,1.362,1.3648,1.3675,1.3718,1.3751,1.3778,1.3816,1.3826,1.3843,1.385,1.384,1.3838,1.3855,1.3855,1.3864,1.3864,1.3864,1.3864,0,1.3314,1.335,1.3392,1.3444,1.3458,1.348,1.3525,1.3548,1.3577,1.3613,1.3624,1.3669,1.3709,1.3747,1.38,1.3818,1.3857,1.3866,1.3842,1.3846,1.3856,1.3855,1.3881,1.3887,1.3883,1.3883,1.3883,0,1.332,1.3342,1.3397,1.3418,1.3443,1.3477,1.3501,1.3539,1.3563,1.3613,1.363,1.3672,1.3708,1.377,1.3809,1.385,1.386,1.3867,1.3867,1.3857,1.3861,1.3859,1.3862,1.3866,1.3866,1.3866,1.3866,0,1.3326,1.3343,1.3378,1.3419,1.3447,1.3482,1.3517,1.3533,1.3577,1.3603,1.3644,1.3672,1.3726,1.3768,1.3813,1.3841,1.3861,1.3865,1.387,1.3861,1.3847,1.3855,1.3841,1.3865,1.3865,1.3865,1.3865,1.3865,1.3326,1.3347,1.3389,1.3427,1.3457,1.3489,1.3514,1.3546,1.358,1.3627,1.3647,1.3689,1.3731,1.3794,1.3821,1.3855,1.3859,1.3866,1.3868,1.387,1.3868,1.3841,1.3863,1.3863,1.3864,1.3864,1.3864,0,1.3334,1.3362,1.3397,1.3445,1.3475,1.3491,1.3531,1.3555,1.3591,1.3628,1.3662,1.371,1.375,1.3792,1.3835,1.3854,1.3864,1.3864,1.3863,1.3869,1.3861,1.3853,1.3855,1.3855,1.3855,1.3855,1.3855,1.3855,1.3342,1.3379,1.3401,1.3454,1.3483,1.3523,1.3545,1.3575,1.3605,1.3657,1.369,1.3717,1.3756,1.3803,1.3841,1.3852,1.3867,1.3864,1.3878,1.387,1.387,1.387,1.3862,1.3867,1.3867,1.3884,1.3884,1.3884]},{"header":{"parameterUnit":"m.s-1","parameterCategory":1,"la1":30.2991,"la2":30.254,"lo1":-89.0895,"lo2":-89.0444,"dy":0.0017,"dx":0.0017,"nx":28,"ny":28,"refTime":"2023-10-05T09:00:00:Z","depth":0,"parameterNumber":3,"parameterNumberName":"V-component_of_WINDS"},"data":[0,0,0,0,0,0,0,0,0,0,0,0,0,0,0,0,0,0,0,0,0,0,0,0,0,0,0,0,0,0,0,0,0,0,0,0,0,0,0,0,0,0,0,0,0,0,0,0,0,0,0,0,0,0,0,0,0,0,1.2708,1.2709,0,1.2819,1.282,1.2821,1.2773,1.2771,1.2768,1.2765,1.2885,1.289,1.2896,0,0,0,0,0,0,0,0,0,0,0,0,0,1.2455,1.246,1.2707,1.2709,1.271,1.2819,1.282,1.2822,1.2774,1.277,1.2767,1.2764,1.2883,1.2889,1.2896,0,0,0,0,0,0,0,0,0,0,0,0,0,1.2566,1.2462,1.2707,1.2699,1.27,1.2818,1.282,1.2822,1.2774,1.277,1.2766,1.2762,1.288,1.2889,1.2897,1.3032,0,0,1.2923,1.2927,0,0,0,0,0,0,0,0,1.2559,1.2575,1.2699,1.27,1.2701,1.2778,1.2775,1.2893,1.2776,1.2746,1.2765,1.276,1.2853,1.2863,1.2893,1.3038,1.3043,1.2924,1.2929,1.2933,1.2936,0,0,0,0,0,0,0,1.2552,1.257,1.2752,1.2701,1.2702,1.2691,1.2702,1.2797,1.2821,1.2748,1.2745,1.2759,1.2852,1.2885,1.2896,1.3044,1.2924,1.2932,1.2937,1.294,1.3299,1.3303,0,0,0,0,0,0,1.2544,1.2564,1.2748,1.2755,1.2618,1.2699,1.2711,1.2757,1.282,1.2826,1.2762,1.2756,1.2873,1.2886,1.29,1.3057,1.2933,1.2941,1.2946,1.3295,1.33,1.3305,0,0,0,0,0,0,1.2538,1.2561,1.2744,1.2659,1.2681,1.2707,1.276,1.2762,1.2794,1.283,1.2835,1.2791,1.287,1.2888,1.2998,1.3061,1.2945,1.2953,1.329,1.3297,1.3303,1.3376,0,0,0,0,0,0,1.2531,1.2559,1.261,1.266,1.2686,1.2839,1.2764,1.2767,1.2809,1.2802,1.2859,1.2864,1.2868,1.2985,1.3006,1.3071,1.2959,1.3284,1.3293,1.3301,1.3368,1.3385,1.3398,0,0,0,0,0,1.2523,1.2629,1.2613,1.2636,1.275,1.2843,1.2858,1.2859,1.2814,1.2865,1.2888,1.2862,1.3051,1.2997,1.302,1.3088,1.328,1.329,1.33,1.3362,1.3381,1.3398,0,0,0,0,0,0,1.2589,1.2635,1.2618,1.2744,1.2789,1.2835,1.29,1.2881,1.2942,1.2933,1.2933,1.2946,1.3059,1.3085,1.3024,1.3219,1.3159,1.3174,1.3198,1.3217,1.3232,1.3222,1.2967,0,0,0,0,0,1.2618,1.2688,1.2726,1.2833,1.2856,1.2874,1.2915,1.2911,1.2959,1.2979,1.301,1.3059,1.3128,1.3175,1.3241,1.3372,1.3382,1.343,1.3445,1.3458,1.347,1.3536,1.3557,1.3338,1.3337,1.3337,0,0,1.2679,1.2713,1.2758,1.2847,1.2882,1.2954,1.2891,1.2972,1.3026,1.2992,1.3096,1.312,1.3175,1.3294,1.3349,1.332,1.3533,1.347,1.348,1.3485,1.3549,1.3569,1.3588,1.3344,1.3343,1.3342,0,0,1.2826,1.286,1.295,1.2986,1.3038,1.3049,1.3071,1.3118,1.3132,1.3236,1.321,1.3275,1.3397,1.3434,1.347,1.3627,1.3605,1.3649,1.3727,1.3792,1.3809,1.3825,1.3877,1.3896,1.3662,1.3662,1.3662,0,1.2895,1.3003,1.3,1.3081,1.312,1.309,1.318,1.3216,1.3288,1.3315,1.3281,1.3429,1.3465,1.359,1.3628,1.3659,1.3682,1.3642,1.3807,1.3822,1.3837,1.3886,1.3906,1.3667,1.3666,1.3666,1.3666,0,1.3083,1.3158,1.3225,1.3292,1.3338,1.3425,1.3434,1.3482,1.3473,1.3487,1.3592,1.3632,1.3704,1.3734,1.3729,1.3858,1.3838,1.3806,1.3745,1.3862,1.3908,1.3928,1.3674,1.3672,1.3671,1.367,0,0,1.3276,1.3337,1.3361,1.3389,1.3443,1.3501,1.3585,1.3653,1.3692,1.3743,1.3811,1.3912,1.3881,1.3922,1.392,1.3977,1.4094,1.3938,1.3939,1.3962,1.4234,1.4255,1.4277,1.408,1.4083,1.4086,1.4228,0,1.3424,1.3568,1.3566,1.37,1.3767,1.3738,1.381,1.3851,1.3866,1.3925,1.3943,1.4012,1.3969,1.3992,1.4047,1.4068,1.4148,1.4058,1.4142,1.4145,1.4125,1.4302,1.4326,1.4457,1.4246,1.425,1.4252,0,1.3616,1.3668,1.3808,1.3847,1.3875,1.394,1.3999,1.4058,1.4103,1.4109,1.4152,1.414,1.4224,1.4161,1.4275,1.4214,1.4248,1.4263,1.4268,1.4274,1.4203,1.4309,1.45,1.4518,1.4281,1.4279,1.4277,0,1.3737,1.3843,1.3939,1.3964,1.4015,1.406,1.4083,1.4124,1.4163,1.4216,1.4241,1.4304,1.4338,1.4387,1.4391,1.4346,1.4505,1.4444,1.4511,1.4511,1.4544,1.4541,1.4739,1.4572,1.4572,1.4571,1.4571,0,1.39,1.3985,1.3993,1.4051,1.4145,1.4142,1.4236,1.4255,1.4291,1.4352,1.4333,1.4391,1.4395,1.4455,1.446,1.4551,1.4568,1.4574,1.4574,1.4574,1.4573,1.4594,1.4584,1.4577,1.4575,1.4574,1.4573,0,1.405,1.4059,1.416,1.4198,1.421,1.4277,1.4309,1.4364,1.4376,1.4454,1.4472,1.4491,1.4559,1.4569,1.4652,1.4654,1.4762,1.4755,1.4746,1.4744,1.4808,1.48,1.5025,1.5052,1.487,1.4872,1.4874,0,1.4152,1.4216,1.426,1.4298,1.4322,1.4385,1.4424,1.4424,1.4465,1.4518,1.4567,1.4633,1.4685,1.4796,1.4817,1.4878,1.487,1.4944,1.4879,1.4875,1.4866,1.486,1.4865,1.4956,1.4958,1.4959,1.4961,0,1.4331,1.4331,1.4386,1.4442,1.4488,1.4533,1.4576,1.4609,1.4614,1.4661,1.4729,1.4769,1.485,1.4915,1.4974,1.4999,1.498,1.4981,1.4999,1.4998,1.4988,1.499,1.4776,1.4975,1.4974,1.4973,1.4972,1.4971,1.4457,1.4511,1.4548,1.4609,1.464,1.4679,1.4731,1.4748,1.4805,1.4868,1.4865,1.4939,1.498,1.5057,1.5085,1.5143,1.5119,1.5146,1.5152,1.5158,1.5162,1.4982,1.5155,1.5154,1.5154,1.5154,1.5153,0,1.4631,1.4652,1.4709,1.4766,1.4814,1.4791,1.4835,1.4877,1.4942,1.498,1.5031,1.5107,1.5169,1.5194,1.5254,1.5295,1.5288,1.5311,1.5306,1.5311,1.5183,1.5159,1.5315,1.5315,1.5315,1.5315,1.5315,1.5315,1.4726,1.4814,1.4818,1.492,1.4942,1.5012,1.5039,1.5074,1.5104,1.5189,1.5239,1.5255,1.5287,1.5348,1.5403,1.5409,1.5431,1.5457,1.5458,1.5337,1.5321,1.5305,1.5282,1.5462,1.5462,1.5581,1.5582,1.5583]}]]